Regional Weather Roundup
Issued by NWS Tiyan, Guam

Home | Current Version | Previous Version | Text Only | Print | Product List | Glossary On
Versions: 1 2 3 4 5 6 7 8 9 10 11 12 13 14 15 16 17 18 19 20 21 22 23 24 25 26 27
000
ASGM40 PGUM 232112
RWRGUM
WEATHER ROUNDUP FOR THE MARIANAS
NATIONAL WEATHER SERVICE TIYAN GU
700 AM CHST FRI FEB 24 2017

GUZ001>004-232200-
MARIANA ISLANDS-

CITY           SKY/WX    TMP DP  RH WIND       PRES   REMARKS
GUAM AIRPORT   PTCLDY    75  75 100 NE7       29.99R
ANDERSEN AFB   PTCLDY    77  73  88 NE14      30.00R
ROTA AIRPORT   PTCLDY    77  73  88 NE10      30.00R
TINIAN AP      MOCLDY    73  70  88 NE5       29.99R
SAIPAN AP      RAIN      73  72  94 SE10      30.01R FOG

$$





USA.gov is the U.S. government's official web portal to all federal, state and local government web resources and services.